パンスターズ彗星

C/2017 K5 ( PanSTARRS )

English version
Home page
Updated on August 28, 2018

---------------------------------------------------------------------

・ プロフィール

発見日 2017年5月27日
発見光度 22.0等
発見者 Pan-STARRS 1 telescope (Haleakala)

・ 写真集

・ 軌道要素

Epoch 2020 Mar. 12.0 TT = JDT 2458920.5
T 2020 Mar. 24.32924 TT                                 MPCW
q   7.6784176            (2000.0)            P               Q
z  -0.0007842      Peri.  171.84182     +0.19349061     +0.16058730
 +/-0.0000086      Node   102.37569     -0.94678372     +0.28920122
e   1.0060215      Incl.   82.26260     -0.25721970     -0.94370248
From 25 observations 2017 May 27-2018 May 12, mean residual 0".3.

・ 光度変化

        m1 = 6.0 + 5 logΔ + 10.0 log r

---------------------------------------------------------------------

軌道要素はM.P.E.C. 2018-K95に掲載されたものです。
光度グラフはComet for Windowsで作成したものです。

---------------------------------------------------------------------

Copyright(C) Seiichi Yoshida (comet@aerith.net). All rights reserved.